Date String (YYYY-MM-DD hh:mm:ss) UTC,Instrument flags,absolute air pressure of the measurement (hPa),sample flow rate (lpm),inlet stack bypass flow (lpm),air temperature of the measurement (°C),ambient temperature measured by the external sensor (°C),aerosol sample conditioner tube jacket temperature (°C),OPC LED temperature (°C),internal box temperature (°C),relative humidity of the measurement (%),span deviation,mass concentration of particles derived from Lorenz-Mie calculation of OPC scattering (μg/m³),mass concentration of particles derived from Lorenz-Mie calculation of OPC scattering (μg/m³),mass concentration of particles derived from Lorenz-Mie calculation of OPC scattering (μg/m³)
DateTimeUTC,F1_M11,P_M11,Q1_M11,Q2_M11,T1_M11,T2_M11,T3_M11,T4_M11,T5_M11,U1_M11,ZSPAN_M11,X0_M11,X2_M11,X1_M11
2024-06-02 04:00:00,SystemResetWarning,0826.3,5.01,000.00,029.7,028.7,000.0,038.1,031.4,014.9,0000.0,0015.16,0004.02,0003.12
2024-06-02 04:01:00,SystemResetWarning,0826.3,5.01,000.00,029.8,028.9,000.0,038.1,031.5,014.9,0000.0,0014.60,0003.94,0003.09
2024-06-02 04:02:00,SystemResetWarning,0826.2,4.99,000.00,029.9,029.0,000.0,038.1,031.6,015.2,0000.0,0013.91,0003.86,0003.03
2024-06-02 04:03:00,SystemResetWarning,0826.2,4.99,000.00,029.9,029.2,000.0,038.1,031.7,015.0,0000.0,0011.88,0003.85,0002.99
2024-06-02 04:04:00,SystemResetWarning,0826.2,5.01,000.00,030.0,029.3,000.0,038.2,031.7,014.9,0000.0,0012.19,0003.80,0002.95
2024-06-02 04:05:00,SystemResetWarning,0826.2,5.02,000.00,030.0,029.4,000.0,038.2,031.8,015.0,0000.0,0012.24,0003.78,0002.93
2024-06-02 04:06:00,SystemResetWarning,0826.2,4.99,000.00,030.1,029.5,000.0,038.2,031.8,014.9,0000.0,0011.89,0003.76,0002.90
2024-06-02 04:07:00,SystemResetWarning,0826.2,4.99,000.00,030.1,029.6,000.0,038.2,031.9,015.2,0000.0,0011.36,0003.72,0002.88
2024-06-02 04:08:00,SystemResetWarning,0826.2,5.01,000.00,030.2,029.6,000.0,038.3,032.0,015.2,0000.0,0011.22,0003.66,0002.87
2024-06-02 04:09:00,SystemResetWarning,0826.2,5.00,000.00,030.2,029.7,000.0,038.3,032.0,015.1,0000.0,0010.79,0003.62,0002.87
2024-06-02 04:10:00,SystemResetWarning,0826.2,5.01,000.00,030.3,029.8,000.0,038.3,032.0,015.0,0000.0,0010.31,0003.63,0002.87
2024-06-02 04:11:00,SystemResetWarning,0826.2,5.00,000.00,030.3,029.8,000.0,038.4,032.1,014.8,0000.0,0010.43,0003.66,0002.89
2024-06-02 04:12:00,SystemResetWarning,0826.2,4.99,000.00,030.4,029.9,000.0,038.4,032.1,014.4,0000.0,0010.45,0003.68,0002.88
2024-06-02 04:13:00,SystemResetWarning,0826.2,4.99,000.00,030.4,029.7,000.0,038.5,032.0,014.3,0000.0,0010.23,0003.70,0002.88
2024-06-02 04:14:00,SystemResetWarning,0826.1,4.99,000.00,030.1,027.5,000.0,038.5,031.1,014.4,0000.0,0009.64,0003.65,0002.84
2024-06-02 04:15:00,SystemResetWarning,0826.0,5.01,000.00,029.7,026.4,000.0,038.5,030.5,014.6,0000.0,0008.22,0003.62,0002.81
2024-06-02 04:16:00,SystemResetWarning,0826.0,5.00,000.00,029.6,026.7,000.0,038.4,030.5,014.6,0000.0,0008.79,0003.61,0002.78
2024-06-02 04:17:00,SystemResetWarning,0826.1,5.00,000.00,029.5,027.1,000.0,038.3,030.7,014.5,0000.0,0009.69,0003.60,0002.77
2024-06-02 04:18:00,SystemResetWarning,0826.1,5.00,000.00,029.6,027.5,000.0,038.2,030.9,014.8,0000.0,0010.66,0003.61,0002.75
2024-06-02 04:19:00,SystemResetWarning,0826.1,5.00,000.00,029.6,027.9,000.0,038.2,031.1,014.7,0000.0,0011.10,0003.58,0002.69
2024-06-02 04:20:00,SystemResetWarning,0826.2,5.00,000.00,029.6,028.2,000.0,038.1,031.2,014.7,0000.0,0011.03,0003.59,0002.64
2024-06-02 04:21:00,SystemResetWarning,0826.2,4.99,000.00,029.7,028.4,000.0,038.1,031.3,014.6,0000.0,0011.55,0003.59,0002.60
2024-06-02 04:22:00,SystemResetWarning,0826.2,5.00,000.00,029.7,028.7,000.0,038.1,031.4,014.7,0000.0,0011.58,0003.54,0002.56
2024-06-02 04:23:00,SystemResetWarning,0826.2,4.99,000.00,029.8,028.8,000.0,038.1,031.5,014.8,0000.0,0011.50,0003.50,0002.52
2024-06-02 04:24:00,SystemResetWarning,0826.2,4.99,000.00,029.8,029.0,000.0,038.1,031.5,014.8,0000.0,0011.56,0003.50,0002.49
2024-06-02 04:25:00,SystemResetWarning,0826.2,4.99,000.00,029.9,029.1,000.0,038.1,031.6,014.8,0000.0,0011.86,0003.49,0002.46
2024-06-02 04:26:00,SystemResetWarning,0826.2,5.01,000.00,029.9,029.2,000.0,038.1,031.6,014.8,0000.0,0012.15,0003.49,0002.44
2024-06-02 04:27:00,SystemResetWarning,0826.2,5.00,000.00,030.0,029.3,000.0,038.1,031.7,015.4,0000.0,0011.45,0003.45,0002.44
2024-06-02 04:28:00,SystemResetWarning,0826.2,4.99,000.00,030.0,029.4,000.0,038.2,031.7,016.0,0000.0,0010.45,0003.44,0002.44
2024-06-02 04:29:00,SystemResetWarning,0826.2,4.99,000.00,030.0,029.5,000.0,038.2,031.8,015.8,0000.0,0009.38,0003.43,0002.48
2024-06-02 04:30:00,SystemResetWarning,0826.2,5.00,000.00,030.1,029.5,000.0,038.2,031.9,016.2,0000.0,0008.49,0003.43,0002.52
2024-06-02 04:31:00,SystemResetWarning,0826.2,5.01,000.00,030.1,029.6,000.0,038.2,031.9,016.1,0000.0,0008.56,0003.45,0002.57
2024-06-02 04:32:00,SystemResetWarning,0826.2,5.01,000.00,030.2,029.6,000.0,038.3,031.9,016.4,0000.0,0008.16,0003.44,0002.63
2024-06-02 04:33:00,SystemResetWarning,0826.2,5.01,000.00,030.2,029.7,000.0,038.3,032.0,016.3,0000.0,0007.84,0003.50,0002.69
2024-06-02 04:34:00,SystemResetWarning,0826.2,4.99,000.00,030.3,029.8,000.0,038.3,032.0,016.4,0000.0,0007.90,0003.52,0002.74
2024-06-02 04:35:00,SystemResetWarning,0826.3,4.99,000.00,030.3,029.8,000.0,038.4,032.1,016.4,0000.0,0007.84,0003.54,0002.81
2024-06-02 04:36:00,SystemResetWarning,0826.3,5.00,000.00,030.4,029.8,000.0,038.4,032.1,016.2,0000.0,0007.58,0003.58,0002.87
2024-06-02 04:37:00,SystemResetWarning,0826.3,5.01,000.00,030.4,029.9,000.0,038.4,032.1,016.0,0000.0,0007.44,0003.58,0002.91
2024-06-02 04:38:00,SystemResetWarning,0826.5,5.01,000.00,030.4,029.9,000.0,038.5,032.2,015.8,0000.0,0007.76,0003.67,0002.95
2024-06-02 04:39:00,SystemResetWarning,0826.4,5.00,000.00,030.5,030.0,000.0,038.5,032.2,015.5,0000.0,0008.07,0003.70,0002.95
2024-06-02 04:40:00,SystemResetWarning,0826.4,4.99,000.00,030.5,030.0,000.0,038.5,032.2,015.6,0000.0,0008.71,0003.71,0002.92
2024-06-02 04:41:00,SystemResetWarning,0826.4,5.00,000.00,030.6,030.0,000.0,038.6,032.3,015.6,0000.0,0009.27,0003.71,0002.89
2024-06-02 04:42:00,SystemResetWarning,0826.4,5.00,000.00,030.6,030.1,000.0,038.6,032.3,015.5,0000.0,0009.30,0003.71,0002.88
2024-06-02 04:43:00,SystemResetWarning,0826.4,4.99,000.00,030.5,028.5,000.0,038.7,031.5,015.7,0000.0,0009.41,0003.73,0002.84
2024-06-02 04:44:00,SystemResetWarning,0826.3,5.01,000.00,030.0,026.5,000.0,038.7,030.6,016.3,0000.0,0009.87,0003.68,0002.81
2024-06-02 04:45:00,SystemResetWarning,0826.2,5.01,000.00,029.7,026.6,000.0,038.6,030.5,016.5,0000.0,0010.26,0003.68,0002.80
2024-06-02 04:46:00,SystemResetWarning,0826.3,4.99,000.00,029.7,027.0,000.0,038.5,030.7,016.8,0000.0,0010.67,0003.65,0002.77
2024-06-02 04:47:00,SystemResetWarning,0826.3,5.00,000.00,029.7,027.4,000.0,038.4,030.9,016.9,0000.0,0011.76,0003.66,0002.78
2024-06-02 04:48:00,SystemResetWarning,0826.4,5.00,000.00,029.7,027.8,000.0,038.3,031.1,017.1,0000.0,0011.87,0003.68,0002.81
2024-06-02 04:49:00,SystemResetWarning,0826.4,5.00,000.00,029.7,028.1,000.0,038.3,031.2,017.2,0000.0,0012.09,0003.69,0002.84
2024-06-02 04:50:00,SystemResetWarning,0826.4,5.00,000.00,029.7,028.4,000.0,038.2,031.3,017.2,0000.0,0012.80,0003.74,0002.90
2024-06-02 04:51:00,SystemResetWarning,0826.4,5.00,000.00,029.8,028.6,000.0,038.2,031.4,017.3,0000.0,0013.45,0003.76,0002.95
2024-06-02 04:52:00,SystemResetWarning,0826.4,5.00,000.00,029.8,028.8,000.0,038.2,031.5,018.2,0000.0,0013.98,0003.79,0003.01
2024-06-02 04:53:00,SystemResetWarning,0826.4,5.01,000.00,029.9,029.0,000.0,038.2,031.6,017.9,0000.0,0014.22,0003.80,0003.06
2024-06-02 04:54:00,SystemResetWarning,0826.4,5.01,000.00,029.9,029.1,000.0,038.2,031.7,017.4,0000.0,0014.53,0003.80,0003.10
2024-06-02 04:55:00,SystemResetWarning,0826.3,5.00,000.00,030.0,029.2,000.0,038.2,031.7,017.3,0000.0,0014.47,0003.82,0003.13
2024-06-02 04:56:00,SystemResetWarning,0826.4,5.00,000.00,030.0,029.3,000.0,038.3,031.8,017.2,0000.0,0014.75,0003.85,0003.15
2024-06-02 04:57:00,SystemResetWarning,0826.4,5.00,000.00,030.1,029.4,000.0,038.3,031.8,017.2,0000.0,0014.99,0003.89,0003.18
2024-06-02 04:58:00,SystemResetWarning,0826.6,4.99,000.00,030.1,029.5,000.0,038.3,031.9,017.1,0000.0,0014.50,0003.92,0003.19
2024-06-02 04:59:00,SystemResetWarning,0826.6,5.00,000.00,030.2,029.6,000.0,038.3,031.9,017.0,0000.0,0014.84,0003.95,0003.20
